User: anonymous   Login
Location: ????????
(54.8751°N, 38.5756°E)
Time: 18:24:38
(UTC+00:00)
Language:

NOSS 2-2 (E) - Orbit

View from above orbital plane
View from above orbital plane
View from above satellite
View from above satellite

Ground track
Ground track

The orbit data is extracted from the following two-line orbital elements,

1 21809U 91076E   24171.83633994  .00002217  00000-0  23624-3 0  9995
2 21809  63.3070 288.5654 0903557  61.1798 307.6905 13.48758524  5855
Epoch (UTC): 19 June 2024 20:04:19
Eccentricity: 0.0903557
inclination: 63.3070°
perigee height: 403 km
apogee height: 1750 km
right ascension of ascending node: 288.5654°
argument of perigee: 61.1798°
revolutions per day: 13.48758524
mean anomaly at epoch: 307.6905°
orbit number at epoch: 585

The dashed part of the orbit path shows where the satellite is in the earth's shadow,  

DLR